Regional Weather Roundup
Issued by NWS

Home | Current Version | Previous Version | Graphics & Text | Print | Product List | Glossary On
Versions: 1 2 3 4 5 6 7 8 9 10 11 12 13 14 15 16 17 18 19 20 21 22 23 24 25 26 27 28 29 30 31 32 33 34 35 36 37 38 39 40 41 42 43 44 45 46 47 48 49 50
000
ASUS43 KDMX 031004
RWRIA

WEATHER ROUNDUP FOR IOWA
NATIONAL WEATHER SERVICE DES MOINES IA
  ISSUED BY NWS QUAD CITIES IA IL
400 AM CST TUE MAR 03 2015

NOTE: "FAIR" INDICATES FEW OR NO CLOUDS BELOW 12,000 FEET WITH NO
SIGNIFICANT WEATHER AND/OR OBSTRUCTIONS TO VISIBILITY.

* - THESE STATIONS ARE NOT NWS STATIONS...THUS NOT UNDER NWS
QUALITY CONTROL.  THEY ALSO DO NOT REPORT WEATHER SUCH
AS PRECIPITATION OR FOG.

IAZ001>003-012>014-020>022-031>034-043>046-031100-
   NORTHWEST IOWA

CITY           SKY/WX    TMP DP  RH WIND       PRES   REMARKS
CARROLL *      CLOUDY    28  25  86 S13       29.73F WCI  18
CHEROKEE *     CLOUDY    27  23  85 SE8       29.72F WCI  18
DENNISON *     CLOUDY    30  25  80 S13       29.70F WCI  20
LE MARS *      CLOUDY    28  23  80 SE8       29.70F WCI  20
ORANGE CITY *  CLOUDY    28  23  80 SE5       29.69F WCI  23
SHELDON *      CLOUDY    25  23  93 SE10      29.69F WCI  15
SIOUX CITY     CLOUDY    30  21  69 SE7       29.69F WCI  23
SPENCER        CLOUDY    26  20  77 SE7       29.74F WCI  18
STORM LAKE *   CLOUDY    25  21  86 SE8       29.72F WCI  16
$$

IAZ055>058-069>071-079>083-090>094-031100-
   SOUTHWEST IOWA

CITY           SKY/WX    TMP DP  RH WIND       PRES   REMARKS
ATLANTIC *     CLOUDY    32  27  80 S13       29.75F WCI  22
AUDUBON *      CLOUDY    28  23  80 S9        29.74F WCI  20
CLARINDA *     MIX PCPN  32  30  93 S8G15     29.74F WCI  25
COUNCIL BLFS * CLOUDY    30  28  93 S13       29.71F WCI  20
CRESTON *      CLOUDY    30  30 100 S12       29.76F WCI  21
HARLAN *       CLOUDY    30  28  93 S12       29.75F WCI  21
LAMONI         FRZ RAIN  30  28  92 S15G26    29.77F FOG     WCI  19
RED OAK *      CLOUDY    32  27  80 S8        29.75F WCI  25
SHENANDOAH *   CLOUDY    32  28  86 S5        29.76S WCI  27
$$

IAZ047>049-059>061-072>074-084-031100-
   CENTRAL IOWA

CITY           SKY/WX    TMP DP  RH WIND       PRES   REMARKS
AMES           CLOUDY    27  21  78 SE9       29.79F WCI  18
ANKENY *       CLOUDY    28  23  80 SE14      29.79F WCI  17
BOONE *        CLOUDY    28  25  86 SE10      29.75F WCI  19
CHARITON *     LGT RAIN  30  28  93 S14G23    29.77F WCI  20
DES MOINES     FRZ DRZL  30  23  75 S12       29.78F WCI  20
GRINNELL *     MIX PCPN  28  26  89 SE18      29.84F WCI  16
KNOXVILLE *    CLOUDY    30  25  80 S12       29.78F FOG     WCI  21
MARSHALLTOWN   CLOUDY    27  21  78 S18       29.81F WCI  14
NEWTON *       CLOUDY    28  25  86 S18G25    29.82F WCI  16
PELLA *        MIX PCPN  29  28  95 S12G18    29.83F WCI  20
PERRY *          N/A     29  24  82 SE10      29.77F WCI  20
$$

IAZ004>006-015-016-023>025-035-036-031100-
   NORTH CENTRAL IOWA

CITY           SKY/WX    TMP DP  RH WIND       PRES   REMARKS
ALGONA *       CLOUDY    25  21  86 SE12      29.78F WCI  14
CLARION *      CLOUDY    25  23  93 SE14      29.78F WCI  13
ESTHERVILLE    CLOUDY    23  19  85 SE10      29.75F WCI  12
FORT DODGE *   CLOUDY    27  19  74 SE6       29.78F WCI  20
MASON CITY     CLOUDY    23  18  81 SE14      29.80F WCI  11
FOREST CITY *  CLOUDY    25  19  80 SE9       29.79F WCI  15
WEBSTER CITY * CLOUDY    25  27 100 SE12      29.75F WCI  14
IOWA FALLS *   CLOUDY    25  21  84 SE10      29.80F WCI  15
$$

IAZ007>011-017>019-026>030-037>042-050>054-066-031100-
   NORTHEAST IOWA

CITY           SKY/WX    TMP DP  RH WIND       PRES   REMARKS
CEDAR RAPIDS   FRZ RAIN  25  23  92 SE15      29.84F FOG     WCI  13
CHARLES CITY * CLOUDY    25  21  86 SE14      29.81F WCI  13
CLINTON *      CLOUDY    25  21  86 SE16      29.98F WCI  12
DECORAH *      CLOUDY    23  18  80 SE9       29.86F WCI  13
DUBUQUE        LGT SNOW  22  20  92 SE15      29.89F FOG     WCI   9
MONTICELLO *   LGT SNOW  25  25 100 SE14G20   29.89F WCI  13
OELWEIN *      CLOUDY    25  21  86 SE17      29.84F FOG     WCI  11
WATERLOO       CLOUDY    25  21  85 SE16G24   29.82F WCI  12
$$

IAZ064-065-067-068-078-031100-
   EAST CENTRAL IOWA

CITY           SKY/WX    TMP DP  RH WIND       PRES   REMARKS
DAVENPORT      MIX PCPN  27  22  81 SE16      29.96F WCI  15
IOWA CITY      FRZ RAIN  28  25  88 SE15      29.89F FOG     WCI  16
MT. PLEASANT * CLOUDY    27  25  92 SE17      29.92F FOG     WCI  14
MUSCATINE *    LGT RAIN  30  27  86 SE14      29.92F WCI  20
QUAD CITIES    FRZ RAIN  28  24  85 SE13      29.95F FOG     WCI  17
$$

IAZ062-063-075>077-085>089-095>099-031100-
   SOUTHEAST IOWA

CITY           SKY/WX    TMP DP  RH WIND       PRES   REMARKS
BURLINGTON     CLOUDY    28  26  92 S10       29.94F FOG     WCI  19
FAIRFIELD *    LGT RAIN  28  25  86 SE16G23   29.89F WCI  17
FORT MADISON * CLOUDY    27  27 100 SE13      29.94F FOG     WCI  16
KEOKUK *       CLOUDY    28  28 100 S7        29.95F FOG     WCI  21
OSKALOOSA *    MIX PCPN  28  25  88 S18G24    29.84F WCI  15
OTTUMWA        FRZ RAIN  29  26  89 S18G26    29.84F FOG     WCI  16
WASHINGTON *   LGT SNOW  30  30 100 S23       29.88F WCI  17
$$

ABBREVIATIONS USED IN REMARKS
   TC - TEMPERATURES IN CELSIUS
  WCI - WIND CHILL INDEX
   HX - HEAT INDEX
  VSB - VISIBILITY
$$


USA.gov is the U.S. government's official web portal to all federal, state and local government web resources and services.